Back to catalog

CZ-6A DEB

AliveSSO
NORAD 54558·DEBRIS·🇨🇳 China

Launched Nov 11, 2022 from Taiyuan Satellite Launch Center

Loading…

Next Passes (next 24 hours)

TLE

FreshSource: Space-Track

Epoch: Sep 14, 2026, 06:07 UTC

1 54558U 22151LJ  26257.25514436  .00000613  00000-0  30495-3 0  9994
2 54558  98.7908 270.4824 0056544  97.1206 263.6404 14.19814960198406

Track CZ-6A DEB in real time with AllMySat

Download on the App Store